Location: ???? ????
(41.4149°N, 22.8816°E)
Time: 14:39:44
(UTC+00:00)

CBERS-1 - Pass Details

Date: 14 July 2020
Orbit: 770 x 776 km, 98.6° (Epoch: 03 August)

Event Time Altitude Azimuth Distance (km) Brightness Sun altitude
Rises 00:52:52 0° 11° (NNE) 3,265 8.5 -19.3°
Reaches altitude 10° 00:55:11 10° 10° (N) 2,333 7.5 -19.0°
Maximum altitude 01:00:20 77° 286° (WNW) 800 4.0 -18.5°
Enters shadow 01:02:41 33° 206° (SSW) 1,286 4.6 -18.2°
